Regional Weather Roundup
Issued by NWS

Home | Current Version | Previous Version | Text Only | Print | Product List | Glossary On
Versions: 1 2 3 4 5 6 7 8 9 10 11 12 13 14 15 16 17 18 19 20 21 22 23 24 25 26 27 28 29 30 31 32 33 34 35 36 37 38 39 40 41 42 43 44 45 46 47 48 49 50
230
ASUS43 KMKX 060600
RWRWI

WISCONSIN REGIONAL WEATHER ROUNDUP
NATIONAL WEATHER SERVICE MILWAUKEE/SULLIVAN WI
100 AM CDT FRI MAY 06 2016

NOTE: "FAIR" INDICATES FEW OR NO CLOUDS BELOW 12,000 FEET WITH NO
SIGNIFICANT WEATHER AND/OR OBSTRUCTIONS TO VISIBILITY.

WIZ001-002-006>008-014>016-023>028-060700-
NORTHWEST WISCONSIN

CITY           SKY/WX    TMP DP  RH WIND       PRES   REMARKS
SUPERIOR ARPT  CLEAR     63  42  45 SW8       29.76F
ASHLAND        PTCLDY    59  40  49 S7        29.79F
6HR MIN TEMP:  59; 6HR MAX TEMP:  73;

HAYWARD        PTCLDY    58  38  47 SW5       29.84F
6HR MIN TEMP:  55; 6HR MAX TEMP:  70;

SIREN          PTCLDY    66  39  36 SW9       29.83F
CUMBERLAND     CLEAR     52  37  58 S5        29.85F
RICE LAKE      CLEAR     54  40  60 CALM      29.87F
CHETEK         CLEAR     52  46  79 CALM      29.86F
LADYSMITH      PTCLDY    53  40  61 SE3       29.89F
EAU CLAIRE     NOT AVBL
MENOMONIE      CLEAR     54  40  59 CALM      29.87F
NEW RICHMOND   CLEAR     58  39  49 SW6       29.87F
OSCEOLA        CLEAR     57  43  60 CALM      29.88F
$$

WIZ003>005-009-010-017-018-060700-
NORTH CENTRAL WISCONSIN

CITY           SKY/WX    TMP DP  RH WIND       PRES   REMARKS
MANITOWISH WTR CLEAR     51  39  63 S5        29.88S
ARBOR VITAE    CLEAR     52  39  60 S3        29.89F
WOODRUFF       CLEAR     52  39  60 S3        29.89F
RHINELANDER    CLEAR     54  37  52 SW3       29.90F
6HR MIN TEMP:  52; 6HR MAX TEMP:  66; 6HR PCP: TRACE;

EAGLE RIVER    CLEAR     47  36  66 CALM      29.89F
LAND O LAKES   CLEAR     52  38  58 SW5       29.90S
PHILLIPS       CLEAR     53  38  56 S6        29.88F
6HR MIN TEMP:  53; 6HR MAX TEMP:  65;

TOMAHAWK       CLEAR     43  38  80 CALM      29.91S
MEDFORD        CLEAR     51  41  69 SE5       29.91S
MERRILL        CLEAR     44  40  89 CALM      29.92F
$$

WIZ029-030-035-036-043>047-060700-
CENTRAL WISCONSIN

CITY           SKY/WX    TMP DP  RH WIND       PRES   REMARKS
WAUSAU         CLEAR     54  43  66 CALM      29.90F
6HR MIN TEMP:  53; 6HR MAX TEMP:  66; 6HR PCP: TRACE;

MOSINEE        CLEAR     50  39  66 SW6       29.93F
MARSHFIELD     CLEAR     54  38  54 S5        29.91S
6HR MIN TEMP:  53; 6HR MAX TEMP:  65; 6HR PCP: TRACE;

STEVENS POINT  CLEAR     44  36  73 CALM      29.93F
WAUPACA        CLEAR     50  38  62 CALM      29.93S
6HR MIN TEMP:  50; 6HR MAX TEMP:  67;

WAUTOMA        NOT AVBL
WISC RAPIDS    CLEAR     49  39  68 SW3       29.93F
6HR MIN TEMP:  48; 6HR MAX TEMP:  67; 6HR PCP: TRACE;

CAMP DOUGLAS     N/A     47  47 100 SE5       29.93F
6HR MIN TEMP:  45; 6HR MAX TEMP:  65;

$$

WIZ011>013-019>022-031-037>040-048>050-060700-
NORTHEAST WISCONSIN

CITY           SKY/WX    TMP DP  RH WIND       PRES   REMARKS
ANTIGO         CLEAR     48  38  68 CALM      29.92S
SHAWANO        CLOUDY    55  36  48 CALM      29.91S
6HR MIN TEMP:  55; 6HR MAX TEMP:  69;

OCONTO         CLOUDY    51  45  81 S3        29.90F
STURGEON BAY   CLOUDY    48  37  66 S8        29.93S
6HR MIN TEMP:  45; 6HR MAX TEMP:  54;

GREEN BAY      PTCLDY    50  42  74 CALM      29.92S
6HR MIN TEMP:  49; 6HR MAX TEMP:  64;

MANITOWOC      NOT AVBL
APPLETON       CLOUDY    50  36  57 CALM      29.91F
CLINTONVILLE   PTCLDY    52  36  54 SW3       29.91S
OSHKOSH        MOCLDY    52  36  54 SW7       29.93S
6HR MIN TEMP:  45; 6HR MAX TEMP:  61;

$$

WIZ032>034-041-042-053>061-060700-
SOUTHWEST WISCONSIN

CITY           SKY/WX    TMP DP  RH WIND       PRES   REMARKS
LA CROSSE      PTCLDY    57  45  64 SE9       29.92S
6HR MIN TEMP:  56; 6HR MAX TEMP:  70;

SPARTA         PTCLDY    46  41  81 CALM      29.93F HAZE
VIROQUA        PTCLDY    55  38  52 SW7       29.95S
BOSCOBEL       PTCLDY    49  42  77 CALM      29.96S
6HR MIN TEMP:  48; 6HR MAX TEMP:  69;

PRAIRIE DU CHI CLEAR     51  42  71 CALM      29.96S
PLATTEVILLE    CLOUDY    53  40  61 S5        29.97S
$$

WIZ056-057-062-063-064-067-068-060700-
SOUTH CENTRAL WISCONSIN

CITY           SKY/WX    TMP DP  RH WIND       PRES   REMARKS
REEDSBURG      CLOUDY    51  41  66 CALM      29.95S
BARABOO/DELLS  CLOUDY    51  37  58 S5        29.95S
LONE ROCK      NOT AVBL
MINERAL POINT  CLOUDY    54  32  43 S5        29.97S
MADISON        CLEAR     46  38  73 CALM      29.96S
6HR MIN TEMP:  44; 6HR MAX TEMP:  65;

MIDDLETON      CLEAR     44  39  82 CALM      29.97S
WATERTOWN      CLEAR     45  40  83 CALM      29.96S
MONROE         CLEAR     55  34  44 W9        29.97S
JANESVILLE     CLEAR     45  39  81 CALM      29.97S
$$

WIZ051-052-058>065-066-070>072-060700-
SOUTHEAST WISCONSIN

CITY           SKY/WX    TMP DP  RH WIND       PRES   REMARKS
MILWAUKEE      CLEAR     46  37  71 SW6       29.97F
6HR MIN TEMP:  46; 6HR MAX TEMP:  51;

WAUKESHA       CLEAR     45  37  76 S3        29.98S
MILWAUKEE/TIMM CLEAR     45  36  70 CALM      29.98S
RACINE         CLEAR     44  37  76 SW5       29.99S
6HR MIN TEMP:  40; 6HR MAX TEMP:  51;

BURLINGTON     CLEAR     40  39  99 CALM      29.98S
KENOSHA        CLEAR     42  35  76 SW5       29.98S
6HR MIN TEMP:  40; 6HR MAX TEMP:  52;

FOND DU LAC    CLOUDY    48  40  73 S6        29.94F
6HR MIN TEMP:  45; 6HR MAX TEMP:  63;

SHEBOYGAN      PTCLDY    44  38  79 SW6       29.94F
6HR MIN TEMP:  42; 6HR MAX TEMP:  54;

WEST BEND      PTCLDY    45  37  76 CALM      29.96S
JUNEAU         CLEAR     46  39  76 SE8       29.96F
$$

LSZ147-162-060700-
LAKE SUPERIOR

STATION/POSITION TIME  TEMP    WIND        PRES    WAVE
                       AIR SEA DIR/SP/G            HT/PER
                 (UTC) (F)     (DEG/KT/KT) (MB)    (FT/S)
W MID LAKE BUOY  0450   47 37  170/ 10/ 10 1009.2F   0
DEVILS ISLAND    0500   59     290/  2/  2 1008.5F
PORT WING        0500   44      50/  6/ 21 1008.8
SAXON HARBOR     0540   64     180/  9/ 20 1008.5F
$$

LMZ867-665-643>646-060700-
LAKE MICHIGAN

STATION/POSITION TIME  TEMP    WIND        PRES    WAVE
                       AIR SEA DIR/SP/G            HT/PER
                 (UTC) (F)     (DEG/KT/KT) (MB)    (FT/S)
CHAMBERS ISLAND  0500   50     170/  5/ 11 1012.9F
N MID LAKE BUOY  0450   41 39  200/ 10/ 10 1013.3F   0
NORTHPORT PIER   0500   50     190/  7/ 12 1012.5F
ALGOMA LAKESHORE 0515          230/  7/  9   N/A
KEWAUNEE LAKESHO 0500   48      CALM  /  3 1013.0F
SHEBOYGAN LAKESH 0500   46     200/  7/  8 1014.9F
PORT WASHINGTON  0540   46     210/  2/  4 1015.2F
S MID LAKE BUOY  0450   41 40  240/  4/  6 1015.2F   1/ 5
KENOSHA   LAKESH 0500   49     210/  4/  5 1015.2S
$$

TC  - TEMPERATURE IN CELSIUS
VSB - VISIBILITY IN STATUTE MILES
WCI - WIND CHILL INDEX
HX  - HEAT INDEX





USA.gov is the U.S. government's official web portal to all federal, state and local government web resources and services.